Regional Weather Roundup
Issued by NWS Northern Indiana

Home | Current Version | Previous Version | Text Only | Print | Product List | Glossary Off
Versions: 1 2 3 4 5 6 7 8 9 10 11 12 13 14 15 16 17 18 19 20 21 22 23 24 25 26 27 28 29 30 31 32 33 34 35 36 37 38 39 40 41 42 43 44 45 46 47 48 49 50

000
ASUS43 KIWX 201710
RWRIWX

KIWX WEATHER ROUNDUP
NATIONAL WEATHER SERVICE NORTHERN INDIANA
1200 PM EST SAT JAN 20 2018

NOTE: "FAIR" INDICATES FEW OR NO CLOUDS BELOW 12,000 FEET WITH NO
SIGNIFICANT WEATHER AND/OR OBSTRUCTIONS TO VISIBILITY.

* THESE STATIONS ARE NOT UNDER NWS QUALITY CONTROL. THEY ALSO MAY NOT
  REPORT WEATHER SUCH AS PRECIPITATION OR FOG.

INZ001>027-201800-
NORTHERN INDIANA

CITY           SKY/WX    TMP DP  RH WIND       PRES   REMARKS
GARY*          PTSUNNY   41  28  60 SW8       29.96S
VALPARAISO     FAIR      37  30  75 S9        29.97F
MICHIGAN CITY* FAIR      37  30  75 SW9       29.97F
LAPORTE*       FAIR      35  29  79 SW12      29.97F WCI  26
KNOX*          FAIR      36  30  80 SW7       29.99S
SOUTH BEND     FAIR      36  28  73 SW15      29.97S
ELKHART*       SUNNY     37  28  70 SW9       29.97S
GOSHEN         FAIR      35  28  75 SW14G24   29.98R WCI  26
MONTICELLO*    FAIR      37  29  71 SW12      30.01S
LOGANSPORT*    FAIR      36  30  80 SW14      30.03S
ROCHESTER*     FAIR      39  32  75 SW13G18   30.01S
WARSAW*        FAIR      37  30  75 SW8       29.99F
AUBURN*        FAIR     N/A N/A N/A SW8       30.00S
FORT WAYNE     PTSUNNY   38  29  70 SW15      30.02R
HUNTINGTON*    FAIR      37  28  68 SW10      30.01S
PERU/GRISSOM   FAIR      37  32  82 SW13      30.01S
MARION*        FAIR      36  29  77 SW14      30.03S HAZE

$$
INZ028>050-201800-
CENTRAL INDIANA

CITY           SKY/WX    TMP DP  RH WIND       PRES   REMARKS
LAFAYETTE      FAIR      38  30  73 SW10G18   30.03S
MUNCIE*        FAIR      39  26  59 SW12G20   30.03S
INDIANAPOLIS   FAIR      41  28  60 SW16      30.07S

$$
MIZ043>046-050>051-056>058-064>065-071>073-077>080-201800-
SOUTHWEST LOWER MICHIGAN

CITY           SKY/WX    TMP DP  RH WIND       PRES   REMARKS
BATTLE CREEK   FAIR      37  28  70 SW10      29.94R
BENTON HARBOR  FAIR      40  28  62 SW15      29.95S
COLDWATER*     FAIR      36  28  73 SW9       29.95F
HILLSDALE*     FAIR      37  28  70 SW10      29.93F
HOLLAND        FAIR      40  31  70 SW12      29.94R
GRAND RAPIDS   PTSUNNY   40  30  67 SW16      29.92R
KALAMAZOO      FAIR      39  28  64 SW8       29.95R
STURGIS*       FAIR      37  29  75 SW13      29.96S
THREE RIVERS*  FAIR      39  29  67 SW9       29.96S

$$
OHZ001>008-015>018-024>025-201800-
NORTHWEST OHIO

CITY           SKY/WX    TMP DP  RH WIND       PRES   REMARKS
WAUSEON*       FAIR      37  30  75 SW15G21   29.98S
FINDLAY        FAIR      40  27  59 SW13      30.00S
TOLEDO EXPRESS FAIR      38  29  70 SW17      29.98S
TOLEDO METCALF FAIR      38  28  67 SW16      29.99F
LIMA           FAIR      37  28  70 SW16      30.01F

$$
AND FOR LAKE MICHIGAN COASTAL AND OPEN LAKE BUOY OBSERVATIONS

STATION/POSITION TEMP    WIND        PRES    VSBY  WAVE
                 AIR SEA DIR/SP/G                  HT/PER
                 (F)     (DEG/KT/KT) (MB)    (MI)  (FT/S)
CALUMET HARBOR    39     200/ 10/ 13 1013.5F
MICHIGAN CITY     38     190/ 11/ 13   N/A
BURNS HARBOR      39     210/  9/ 13 1015.2R
SAINT JOSEPH      36     210/ 10/ 17 1014.9

$$
&&




USA.gov is the U.S. government's official web portal to all federal, state and local government web resources and services.